When you browse on this site, cookies collect data to enhance your experience and personalize the content and advertising you see.
Visit our Privacy Policy to learn more. By continuing to use the site, you agree to this use of cookies and data.
  • En España
  • Lista de países
  • Para 7 días
  • Temperatura del agua
  • El tiempo en el mapa
  • Informadores
  • user-avatar
    Iniciar sesión

    Tiempo cada hora Al Hudaydah

    Hoy, 23 Agosto, Viernes

    Tiempo Temperatura Precipitaciones Viento Presión Humedad
    00:00 +35°C° 0 mm 1 mps 750 mmHg 63%
    01:00 +35°C° 0 mm 2 mps 749 mmHg 66%
    02:00 +35°C° 0 mm 3 mps 749 mmHg 69%
    03:00 +34°C° 0 mm 4 mps 748 mmHg 76%
    04:00 +34°C° 0 mm 3 mps 749 mmHg 78%
    05:00 +32°C° 0 mm 2 mps 749 mmHg 79%
    06:00 +32°C° 0 mm 1 mps 749 mmHg 80%
    07:00 +33°C° 0 mm 1 mps 750 mmHg 76%
    08:00 +35°C° 0 mm 2 mps 750 mmHg 72%
    09:00 +36°C° 0 mm 3 mps 750 mmHg 67%
    10:00 +37°C° 0 mm 3 mps 750 mmHg 61%
    11:00 +38°C° 0 mm 4 mps 750 mmHg 55%
    12:00 +41°C° 0 mm 5 mps 750 mmHg 50%
    13:00 +41°C° 0.1 mm 5 mps 750 mmHg 49%
    14:00 +41°C° 0.1 mm 5 mps 749 mmHg 48%
    15:00 +41°C° 0.1 mm 5 mps 749 mmHg 47%
    16:00 +40°C° 0 mm 5 mps 749 mmHg 50%
    17:00 +38°C° 0 mm 4 mps 749 mmHg 54%
    18:00 +37°C° 0 mm 4 mps 749 mmHg 57%
    19:00 +36°C° 0 mm 3 mps 750 mmHg 59%
    20:00 +36°C° 0 mm 3 mps 750 mmHg 62%
    21:00 +35°C° 0 mm 2 mps 750 mmHg 64%
    22:00 +34°C° 0 mm 1 mps 750 mmHg 64%
    23:00 +34°C° 0 mm 1 mps 750 mmHg 64%

    Mañana, 24 Agosto, Sábado

    Tiempo Temperatura Precipitaciones Viento Presión Humedad
    00:00 +32°C° 0 mm 0 mps 750 mmHg 63%
    01:00 +32°C° 0 mm 0 mps 750 mmHg 64%
    02:00 +34°C° 0 mm 1 mps 750 mmHg 64%
    03:00 +34°C° 0 mm 1 mps 749 mmHg 65%
    04:00 +34°C° 0 mm 1 mps 750 mmHg 66%
    05:00 +33°C° 0 mm 1 mps 750 mmHg 67%
    06:00 +33°C° 0 mm 1 mps 750 mmHg 68%
    07:00 +34°C° 0 mm 1 mps 751 mmHg 64%
    08:00 +35°C° 0 mm 1 mps 751 mmHg 60%
    09:00 +36°C° 0 mm 1 mps 751 mmHg 57%
    10:00 +38°C° 0 mm 2 mps 751 mmHg 51%
    11:00 +40°C° 0 mm 3 mps 751 mmHg 46%
    12:00 +42°C° 0 mm 4 mps 751 mmHg 40%
    13:00 +42°C° 0 mm 5 mps 751 mmHg 41%
    14:00 +41°C° 0 mm 6 mps 750 mmHg 43%
    15:00 +41°C° 0 mm 7 mps 749 mmHg 44%
    16:00 +39°C° 1.8 mm 8 mps 750 mmHg 45%
    17:00 +37°C° 1.8 mm 10 mps 751 mmHg 46%
    18:00 +34°C° 1.8 mm 11 mps 751 mmHg 47%
    19:00 +34°C° 0 mm 9 mps 751 mmHg 44%
    20:00 +35°C° 0 mm 7 mps 752 mmHg 42%
    21:00 +36°C° 0 mm 5 mps 752 mmHg 39%
    22:00 +36°C° 0 mm 5 mps 752 mmHg 41%
    23:00 +36°C° 0 mm 4 mps 751 mmHg 42%

    Pasado mañana, 25 Agosto, Domingo

    Tiempo Temperatura Precipitaciones Viento Presión Humedad
    00:00 +36°C° 0 mm 3 mps 751 mmHg 43%
    01:00 +36°C° 0 mm 3 mps 751 mmHg 46%
    02:00 +35°C° 0 mm 3 mps 750 mmHg 49%
    03:00 +35°C° 0 mm 2 mps 749 mmHg 51%
    04:00 +35°C° 0 mm 2 mps 750 mmHg 52%
    05:00 +35°C° 0 mm 2 mps 750 mmHg 52%
    06:00 +35°C° 0 mm 2 mps 750 mmHg 52%
    07:00 +36°C° 0 mm 3 mps 751 mmHg 50%
    08:00 +37°C° 0 mm 3 mps 751 mmHg 49%
    09:00 +37°C° 0 mm 4 mps 751 mmHg 47%
    10:00 +40°C° 0 mm 4 mps 751 mmHg 44%
    11:00 +41°C° 0 mm 5 mps 751 mmHg 41%
    12:00 +42°C° 0 mm 5 mps 751 mmHg 38%
    13:00 +42°C° 0 mm 6 mps 751 mmHg 37%
    14:00 +43°C° 0 mm 7 mps 750 mmHg 36%
    15:00 +43°C° 0 mm 9 mps 750 mmHg 36%
    16:00 +41°C° 0 mm 8 mps 750 mmHg 39%
    17:00 +40°C° 0 mm 8 mps 750 mmHg 41%
    18:00 +39°C° 0 mm 8 mps 750 mmHg 44%
    19:00 +38°C° 0 mm 8 mps 750 mmHg 47%
    20:00 +38°C° 0 mm 7 mps 750 mmHg 49%
    21:00 +36°C° 0 mm 7 mps 751 mmHg 52%
    22:00 +36°C° 0 mm 6 mps 751 mmHg 53%
    23:00 +36°C° 0 mm 5 mps 750 mmHg 53%

    26 Agosto, Lunes

    Tiempo Temperatura Precipitaciones Viento Presión Humedad
    00:00 +36°C° 0 mm 4 mps 750 mmHg 54%
    01:00 +36°C° 0 mm 4 mps 750 mmHg 55%
    02:00 +35°C° 0 mm 3 mps 749 mmHg 56%
    03:00 +35°C° 0 mm 3 mps 749 mmHg 57%
    04:00 +35°C° 0 mm 3 mps 749 mmHg 57%
    05:00 +35°C° 0 mm 3 mps 749 mmHg 58%
    06:00 +35°C° 0 mm 3 mps 749 mmHg 58%
    07:00 +35°C° 0 mm 3 mps 750 mmHg 56%
    08:00 +36°C° 0 mm 3 mps 750 mmHg 54%
    09:00 +37°C° 0 mm 4 mps 750 mmHg 52%
    10:00 +38°C° 0 mm 4 mps 750 mmHg 46%
    11:00 +41°C° 0 mm 4 mps 750 mmHg 40%
    12:00 +42°C° 0 mm 4 mps 750 mmHg 34%
    13:00 +42°C° 0 mm 5 mps 749 mmHg 34%
    14:00 +42°C° 0 mm 6 mps 749 mmHg 33%
    15:00 +43°C° 0 mm 7 mps 748 mmHg 32%
    16:00 +41°C° 0 mm 7 mps 748 mmHg 34%
    17:00 +40°C° 0 mm 7 mps 748 mmHg 37%
    18:00 +39°C° 0 mm 6 mps 748 mmHg 39%
    19:00 +39°C° 0 mm 6 mps 749 mmHg 40%
    20:00 +38°C° 0 mm 6 mps 749 mmHg 41%
    21:00 +37°C° 0 mm 5 mps 750 mmHg 42%
    22:00 +37°C° 0 mm 5 mps 749 mmHg 43%
    23:00 +36°C° 0 mm 4 mps 749 mmHg 44%

    27 Agosto, Martes

    Tiempo Temperatura Precipitaciones Viento Presión Humedad
    00:00 +36°C° 0 mm 4 mps 749 mmHg 45%
    01:00 +36°C° 0 mm 3 mps 749 mmHg 45%
    02:00 +36°C° 0 mm 3 mps 748 mmHg 45%
    03:00 +36°C° 0 mm 2 mps 748 mmHg 46%
    04:00 +35°C° 0 mm 2 mps 748 mmHg 51%
    05:00 +35°C° 0 mm 3 mps 749 mmHg 56%
    06:00 +34°C° 0 mm 3 mps 749 mmHg 61%
    07:00 +35°C° 0 mm 3 mps 749 mmHg 57%
    08:00 +36°C° 0 mm 3 mps 750 mmHg 53%
    09:00 +37°C° 0 mm 3 mps 750 mmHg 49%
    10:00 +38°C° 0 mm 3 mps 750 mmHg 43%
    11:00 +41°C° 0 mm 4 mps 749 mmHg 37%
    12:00 +42°C° 0 mm 4 mps 749 mmHg 31%
    13:00 +42°C° 0 mm 5 mps 749 mmHg 31%
    14:00 +42°C° 0 mm 6 mps 748 mmHg 31%
    15:00 +41°C° 0 mm 7 mps 748 mmHg 30%
    16:00 +41°C° 0 mm 7 mps 748 mmHg 33%
    17:00 +40°C° 0 mm 6 mps 748 mmHg 36%
    18:00 +39°C° 0 mm 6 mps 748 mmHg 39%
    19:00 +38°C° 0 mm 6 mps 748 mmHg 43%
    20:00 +36°C° 0 mm 5 mps 749 mmHg 48%
    21:00 +35°C° 0 mm 5 mps 749 mmHg 52%
    22:00 +35°C° 0 mm 4 mps 749 mmHg 52%
    23:00 +35°C° 0 mm 3 mps 749 mmHg 52%

    28 Agosto, Miércoles

    Tiempo Temperatura Precipitaciones Viento Presión Humedad
    00:00 +35°C° 0 mm 2 mps 748 mmHg 52%
    01:00 +35°C° 0 mm 2 mps 748 mmHg 53%
    02:00 +35°C° 0 mm 2 mps 748 mmHg 53%
    03:00 +35°C° 0 mm 3 mps 747 mmHg 54%
    04:00 +34°C° 0 mm 2 mps 748 mmHg 56%
    05:00 +33°C° 0 mm 1 mps 748 mmHg 59%
    06:00 +32°C° 0 mm 1 mps 749 mmHg 61%
    07:00 +34°C° 0 mm 1 mps 749 mmHg 56%
    08:00 +36°C° 0 mm 2 mps 749 mmHg 50%
    09:00 +37°C° 0 mm 2 mps 750 mmHg 45%
    10:00 +38°C° 0 mm 3 mps 749 mmHg 41%
    11:00 +40°C° 0 mm 4 mps 749 mmHg 37%
    12:00 +41°C° 0 mm 4 mps 749 mmHg 33%
    13:00 +41°C° 0 mm 5 mps 748 mmHg 36%
    14:00 +41°C° 0 mm 6 mps 748 mmHg 39%
    15:00 +41°C° 0 mm 6 mps 748 mmHg 42%
    16:00 +40°C° 0 mm 5 mps 748 mmHg 45%
    17:00 +39°C° 0 mm 5 mps 748 mmHg 49%
    18:00 +37°C° 0 mm 4 mps 748 mmHg 53%
    19:00 +36°C° 0 mm 3 mps 749 mmHg 53%
    20:00 +36°C° 0 mm 3 mps 749 mmHg 54%
    21:00 +36°C° 0 mm 2 mps 750 mmHg 54%
    22:00 +36°C° 0 mm 2 mps 749 mmHg 54%
    23:00 +36°C° 0 mm 3 mps 749 mmHg 53%
    Mostrar más